Starlink 30991

operational
NORAD ID: 58484 Int'l Des: 2023-186 Owner: SPXS Country: US Constellation: starlink
LEOCIRCULAR

关于 Starlink 30991

正在加载描述...

实时位置

正在加载3D地球...

即将过境

高度历史

Altitude vs Time

uPlot chart will show altitude changes over time

两行轨道根数

1 58484U 23186M 25351.76439209 -.00000173 00000-0 22540-5 0 9995
2 58484 43.0030 152.1022 0001348 267.1676 92.9012 15.02533962113526
Epoch: Dec 17, 2025 • Age: 13 hours

当前状态

高度 562.8 km
速度 7.59 km/s
星下点 41.55°N, 57.44°E
发射日期 Dec 3, 2023
运行时间 2 years
类型 internet

技术详情

分类 Payload
质量 730.00 kg
干质量 700.00 kg
总质量 730.00 kg
长度 0.30 m
直径 4.10 m
跨度 29.00 m
形状 Box + pan
制造商 SPXS
平台类型 Starlink V2M
阶段状态 In Orbit
所有者/国家 SPXS/US

大型星座

Loading constellations...